Location: Antioch Baptist Church
(32.6696°N, 85.7327°W)
Time: 20:54:27
(UTC+00:00)

Cosmos 2074 Rocket - Pass Details

Date: 14 July 2020
Orbit: 967 x 986 km, 82.9° (Epoch: 13 August)

Event Time Altitude Azimuth Distance (km) Brightness Sun altitude
Exits shadow 02:34:53 24° 167° (SSE) 1,892 5.0 -18.6°
Maximum altitude 02:38:42 64° 93° (E) 1,069 4.0 -19.2°
Drops below altitude 10° 02:44:50 10° 13° (NNE) 2,714 6.7 -20.2°
Sets 02:47:21 0° 10° (N) 3,663 7.5 -20.5°
